Current weather by "City, St" or "zip code"  
 
Advertise Here

Current Conditions: El Reno, El Reno Regional Airport, OK

Fair


74.0 F

Last Updated on Jul 26 2021, 10:55 pm CDT
Humidity: 80%
Wind Speed: E 5.8 mph
Barometer 30.03 in
Dewpoint: 68.0 F
Visibility: 10.00 mi
Precip: --
Heat Index: NA
Wind Chill: NA
Current conditions at:

El Reno, El Reno Regional Airport, OK (KRQO)

Lat: 35.4725 Lon: 98.00556

Local Radar Image active severe weather and emergency alerts image image weather storm and storm spotter reports image weather observation monitoring service image
Local
Radar
Active
Alerts
Storm Reports Obs
Monitoring

Sign-up For Email & Text Message Weather Alert Notification Services


Advertise Here

Observation History for El Reno, El Reno Regional Airport, OK


Time Wind
(mph)
Vis
(mi)
Weather Precip (in) Temperature (F) Relative
Humidity
Wind
Chill
(F)
Heat
Index
(F)
Pressure
Air Dwpt altimeter
(in)
sea level
(mb)
Rmks
10:55 pm CDT E 5.8 10.00 Fair -- 74.0 68.0 80% NA NA 30.03 M
9:55 pm CDT N 0.0 10.00 Fair -- 76.0 67.3 75% NA NA 30.02 M
8:55 pm CDT E 3.5 10.00 Fair -- 77.0 67.6 74% NA NA 30.02 M
7:55 pm CDT E 8.1 10.00 Fair -- 79.0 67.3 68% NA NA 30.00 M
6:55 pm CDT E 11.5 10.00 Fair -- 80.0 67.8 67% NA 83 29.98 M
5:55 pm CDT E 10.4 10.00 Fair -- 82.0 70.0 67% NA 86 29.98 M
4:55 pm CDT E 18.4 10.00 Mostly Cloudy -- 90.0 71.1 54% NA 97 30.00 M
3:55 pm CDT NW 5.8 10.00 Fair -- 95.0 71.6 47% NA 103 30.00 M
2:55 pm CDT NW 6.9 10.00 Fair -- 92.0 72.9 54% NA 101 30.01 M
1:55 pm CDT NW 5.8 10.00 Fair -- 90.0 73.2 59% NA 99 30.03 M
12:55 pm CDT NW 6.9 10.00 Fair -- 85.0 72.5 66% NA 91 30.04 M
11:55 am CDT N 0.0 10.00 Fair -- 84.0 72.0 66% NA 89 30.03 M
10:55 am CDT E 3.5 10.00 Fair -- 83.0 70.5 65% NA 87 30.03 M
7:35 am CDT SW 5.8 10.00 Fair -- 73.0 69.6 90% NA NA 30.04 M
6:55 am CDT SW 8.1 10.00 Mostly Cloudy -- 71.0 69.6 95% NA NA 30.04 M
5:55 am CDT NW 5.8 10.00 Fair -- 71.0 68.9 95% NA NA 30.04 M
4:55 am CDT N 8.1 10.00 Fair -- 71.0 68.4 92% NA NA 30.02 M
3:55 am CDT NE 5.8 10.00 Fair -- 73.0 68.4 86% NA NA 30.01 M
2:55 am CDT N 8.1 10.00 Fair -- 73.0 68.7 88% NA NA 30.00 M
2:35 am CDT E 3.5 10.00 Fair -- 73.0 68.7 87% NA NA 29.98 M
1:55 am CDT N 8.1 10.00 Fair -- 73.0 69.3 89% NA NA 29.97 M
12:50 am CDT SE 10.4 10.00 Light Rain -- 72.0 69.3 92% NA NA 29.99 M
12:00 am CDT SW 11.5 NULL Mostly Cloudy -- 72.0 68.7 91% NA NA 29.99 M

Regional Weather Observation


Watonga, Watonga Airport, OK (KJWG)

Fair
73.0 F

Weatherford, Thomas P Stafford Airport, OK (KOJA)

Fair with Haze
77.0 F

Clarence E Page Municipal Airport, OK (KRCE)

A Few Clouds
73.0 F

Clinton, Clinton Regional Airport, OK (KCLK)

Fair
77.0 F

Sundance Airport, OK (KHSD)

Fair
73.0 F

Oklahoma City, Wiley Post Airport, OK (KPWA)

Fair
74.0 F
Advertise Here

Advertise Here